| time (UTC) | temp C | wind direction | speed KPH | gust KPH | rain 1hr cm | rain 24hr cm | rain mn cm | humidity % | barometer mb |
| 20260505124631 | 13 | 4 | 12.9 | 22.5 | 0.00 | 0.61 | 0.61 | 90 | 1007.6 |
| 20260505124127 | 13 | 39 | 12.9 | 19.3 | 0.00 | 0.61 | 0.61 | 91 | 1007.5 |
| 20260505123623 | 13 | 32 | 14.5 | 19.3 | 0.00 | 0.61 | 0.61 | 91 | 1007.3 |
| 20260505123120 | 13 | 28 | 16.1 | 24.1 | 0.00 | 0.61 | 0.61 | 90 | 1007.3 |
| 20260505122617 | 13 | 29 | 8.0 | 16.1 | 0.00 | 0.61 | 0.61 | 91 | 1007.2 |
| 20260505122114 | 13 | 25 | 16.1 | 24.1 | 0.00 | 0.61 | 0.61 | 90 | 1007.0 |
| 20260505121610 | 13 | 19 | 19.3 | 22.5 | 0.00 | 0.61 | 0.61 | 89 | 1006.8 |
| 20260505121107 | 14 | 26 | 11.3 | 17.7 | 0.00 | 0.61 | 0.61 | 90 | 1007.2 |
| 20260505120603 | 14 | 16 | 6.4 | 17.7 | 0.00 | 0.61 | 0.61 | 90 | 1006.8 |
| 20260505120059 | 14 | 43 | 14.5 | 24.1 | 0.00 | 0.61 | 0.61 | 90 | 1006.6 |
| 20260505115554 | 14 | 32 | 16.1 | 24.1 | 0.00 | 0.61 | 0.61 | 91 | 1006.5 |
| 20260505115051 | 15 | 25 | 17.7 | 17.7 | 0.00 | 0.61 | 0.61 | 92 | 1006.6 |
| 20260505114548 | 15 | 22 | 11.3 | 16.1 | 0.00 | 0.61 | 0.61 | 92 | 1006.2 |
| 20260505114044 | 15 | 31 | 11.3 | 12.9 | 0.00 | 0.61 | 0.61 | 93 | 1006.4 |
| 20260505113541 | 15 | 23 | 14.5 | 17.7 | 0.00 | 0.61 | 0.61 | 92 | 1006.5 |
| 20260505113038 | 15 | 42 | 6.4 | 12.9 | 0.00 | 0.61 | 0.61 | 92 | 1006.7 |
| 20260505112534 | 15 | 23 | 6.4 | 9.7 | 0.00 | 0.61 | 0.61 | 93 | 1006.5 |
| 20260505112032 | 15 | 27 | 9.7 | 17.7 | 0.00 | 0.61 | 0.61 | 91 | 1006.7 |
| 20260505111526 | 15 | 21 | 9.7 | 11.3 | 0.00 | 0.61 | 0.61 | 92 | 1006.8 |
| 20260505111022 | 15 | 17 | 9.7 | 11.3 | 0.00 | 0.61 | 0.61 | 92 | 1006.8 |
| 20260505110519 | 15 | 21 | 4.8 | 12.9 | 0.05 | 0.61 | 0.61 | 93 | 1006.7 |
| 20260505101951 | 16 | 300 | 8.0 | 16.1 | 0.00 | 0.58 | 0.58 | 90 | 1007.0 |
| 20260505101449 | 16 | 314 | 8.0 | 9.7 | 0.00 | 0.58 | 0.58 | 90 | 1006.8 |
| 20260505100945 | 16 | 27 | 14.5 | 16.1 | 0.00 | 0.58 | 0.58 | 89 | 1006.0 |
| 20260505100443 | 16 | 25 | 3.2 | 16.1 | 0.00 | 0.58 | 0.58 | 89 | 1006.3 |
| 20260505095939 | 16 | 341 | 9.7 | 14.5 | 0.00 | 0.58 | 0.58 | 90 | 1006.8 |
| 20260505095436 | 16 | 335 | 8.0 | 8.0 | 0.00 | 0.58 | 0.58 | 89 | 1006.3 |
| 20260505094932 | 16 | 305 | 27.4 | 37.0 | 0.05 | 0.58 | 0.58 | 88 | 1006.6 |
| 20260505094429 | 16 | 305 | 24.1 | 25.7 | 0.00 | 0.58 | 0.58 | 89 | 1006.6 |
| 20260505093925 | 15 | 271 | 6.4 | 8.0 | 0.00 | 0.58 | 0.58 | 88 | 1006.3 |
| 20260505093422 | 16 | 253 | 3.2 | 3.2 | 0.00 | 0.58 | 0.58 | 87 | 1006.0 |
| 20260505092919 | 16 | 145 | 4.8 | 6.4 | 0.00 | 0.58 | 0.58 | 86 | 1005.5 |
| 20260505092417 | 16 | 150 | 11.3 | 11.3 | 0.05 | 0.58 | 0.58 | 85 | 1005.4 |
| 20260505091914 | 16 | 166 | 11.3 | 20.9 | 0.13 | 0.58 | 0.58 | 85 | 1005.2 |
| 20260505091412 | 16 | 139 | 16.1 | 29.0 | 0.13 | 0.56 | 0.56 | 83 | 1004.9 |
| 20260505090909 | 16 | 149 | 16.1 | 22.5 | 0.18 | 0.56 | 0.56 | 85 | 1004.8 |
| 20260505090408 | 16 | 141 | 14.5 | 24.1 | 0.13 | 0.56 | 0.56 | 82 | 1004.5 |
| 20260505085905 | 16 | 134 | 20.9 | 29.0 | 0.00 | 0.53 | 0.53 | 82 | 1003.9 |
| 20260505085402 | 16 | 142 | 25.7 | 29.0 | 0.00 | 0.53 | 0.53 | 85 | 1004.2 |
| 20260505084900 | 16 | 213 | 20.9 | 25.7 | 0.05 | 0.53 | 0.53 | 88 | 1004.4 |
| 20260505084358 | 16 | 152 | 19.3 | 35.4 | 0.05 | 0.53 | 0.53 | 89 | 1003.8 |
| 20260505083856 | 16 | 138 | 35.4 | 37.0 | 0.00 | 0.51 | 0.51 | 89 | 1003.6 |
| 20260505083353 | 16 | 141 | 27.4 | 37.0 | 0.13 | 0.51 | 0.51 | 93 | 1004.2 |
| 20260505082849 | 16 | 145 | 20.9 | 27.4 | 0.13 | 0.51 | 0.51 | 94 | 1005.0 |
| 20260505082345 | 16 | 166 | 14.5 | 24.1 | 0.13 | 0.51 | 0.51 | 94 | 1005.6 |
| 20260505081842 | 16 | 148 | 17.7 | 24.1 | 0.18 | 0.51 | 0.51 | 95 | 1006.1 |
| 20260505081339 | 16 | 157 | 12.9 | 20.9 | 0.18 | 0.48 | 0.48 | 96 | 1006.3 |
| 20260505080836 | 15 | 215 | 20.9 | 25.7 | 0.36 | 0.46 | 0.46 | 96 | 1007.0 |
| 20260505080331 | 16 | 216 | 12.9 | 17.7 | 0.30 | 0.46 | 0.46 | 95 | 1006.8 |
| 20260505075827 | 16 | 237 | 9.7 | 14.5 | 0.18 | 0.41 | 0.41 | 96 | 1007.0 |
| 20260505075324 | 16 | 169 | 16.1 | 20.9 | 0.30 | 0.41 | 0.41 | 96 | 1007.2 |
| 20260505074822 | 16 | 207 | 20.9 | 37.0 | 0.43 | 0.38 | 0.38 | 95 | 1007.4 |
| 20260505074319 | 16 | 220 | 22.5 | 32.2 | 0.30 | 0.33 | 0.33 | 95 | 1007.7 |
| 20260505073816 | 16 | 230 | 14.5 | 32.2 | 0.36 | 0.30 | 0.30 | 94 | 1007.4 |
| 20260505073314 | 16 | 233 | 41.8 | 41.8 | 0.53 | 0.28 | 0.28 | 95 | 1007.3 |
| 20260505072811 | 16 | 211 | 25.7 | 46.7 | 0.53 | 0.23 | 0.23 | 95 | 1007.3 |
| 20260505072307 | 16 | 206 | 17.7 | 30.6 | 0.43 | 0.18 | 0.18 | 92 | 1007.4 |
| 20260505071803 | 16 | 224 | 22.5 | 48.3 | 0.36 | 0.15 | 0.15 | 91 | 1007.2 |
| 20260505071259 | 16 | 237 | 25.7 | 38.6 | 0.36 | 0.13 | 0.13 | 89 | 1007.3 |
| 20260505070757 | 16 | 194 | 22.5 | 35.4 | 0.36 | 0.08 | 0.08 | 87 | 1007.4 |
| 20260505070254 | 17 | 203 | 11.3 | 27.4 | 0.23 | 0.05 | 0.05 | 85 | 1007.4 |
| 20260505065749 | 17 | 194 | 19.3 | 33.8 | 0.18 | 0.03 | 0.03 | 81 | 1007.4 |
| 20260505065246 | 17 | 199 | 17.7 | 25.7 | 0.13 | 0.03 | 0.03 | 80 | 1006.8 |
| 20260505064743 | 18 | 212 | 20.9 | 25.7 | 0.00 | 0.00 | 0.00 | 76 | 1006.7 |
| 20260505064240 | 18 | 161 | 29.0 | 29.0 | 0.00 | 0.00 | 0.00 | 74 | 1006.5 |
| 20260505063737 | 18 | 182 | 16.1 | 29.0 | 0.00 | 0.00 | 0.00 | 73 | 1006.4 |
| 20260505063234 | 18 | 202 | 12.9 | 25.7 | 0.00 | 0.00 | 0.00 | 73 | 1006.1 |
| 20260505062730 | 19 | 147 | 12.9 | 27.4 | 0.00 | 0.00 | 0.00 | 70 | 1006.1 |
| 20260505062228 | 19 | 149 | 16.1 | 25.7 | 0.00 | 0.00 | 0.00 | 70 | 1005.9 |
| 20260505061725 | 19 | 155 | 17.7 | 37.0 | 0.00 | 0.00 | 0.00 | 70 | 1006.0 |
| 20260505061223 | 19 | 151 | 20.9 | 25.7 | 0.00 | 0.00 | 0.00 | 69 | 1005.9 |
| 20260505060720 | 19 | 150 | 20.9 | 29.0 | 0.00 | 0.00 | 0.00 | 70 | 1006.2 |
| 20260505060217 | 19 | 153 | 17.7 | 29.0 | 0.00 | 0.00 | 0.00 | 70 | 1006.0 |
| 20260505055712 | 18 | 148 | 16.1 | 22.5 | 0.00 | 0.00 | 0.00 | 70 | 1006.2 |
| 20260505055209 | 18 | 165 | 17.7 | 24.1 | 0.00 | 0.00 | 0.00 | 70 | 1006.4 |
| 20260505054706 | 18 | 146 | 17.7 | 20.9 | 0.00 | 0.00 | 0.00 | 71 | 1006.1 |
| 20260505054204 | 18 | 152 | 17.7 | 24.1 | 0.00 | 0.00 | 0.00 | 70 | 1006.1 |
| 20260505053702 | 18 | 154 | 14.5 | 17.7 | 0.00 | 0.00 | 0.00 | 71 | 1006.3 |
| 20260505053158 | 18 | 157 | 9.7 | 14.5 | 0.00 | 0.00 | 0.00 | 71 | 1006.2 |
| 20260505052655 | 18 | 166 | 14.5 | 17.7 | 0.00 | 0.00 | 0.00 | 71 | 1006.4 |
| 20260505052152 | 18 | 151 | 11.3 | 19.3 | 0.00 | 0.00 | 0.00 | 70 | 1006.4 |
| 20260505051649 | 18 | 158 | 19.3 | 20.9 | 0.00 | 0.00 | 0.00 | 70 | 1006.3 |
| 20260505051148 | 18 | 142 | 11.3 | 20.9 | 0.00 | 0.00 | 0.00 | 71 | 1006.1 |
| 20260505050645 | 18 | 141 | 14.5 | 22.5 | 0.00 | 0.00 | 0.00 | 71 | 1006.3 |
| 20260505050144 | 18 | 149 | 16.1 | 19.3 | 0.00 | 0.00 | 0.00 | 71 | 1006.1 |
| 20260505041618 | 19 | 140 | 16.1 | 17.7 | 0.00 | 0.00 | 0.00 | 70 | 1006.6 |
| 20260505041115 | 19 | 141 | 9.7 | 20.9 | 0.00 | 0.00 | 0.00 | 69 | 1007.0 |
| 20260505040613 | 19 | 133 | 14.5 | 17.7 | 0.00 | 0.00 | 0.00 | 70 | 1006.8 |
| 20260505040110 | 19 | 132 | 14.5 | 17.7 | 0.00 | 0.00 | 0.00 | 70 | 1006.7 |
| 20260505035606 | 19 | 133 | 16.1 | 17.7 | 0.00 | 0.00 | 0.00 | 70 | 1007.2 |
| 20260505035102 | 19 | 142 | 16.1 | 16.1 | 0.00 | 0.00 | 0.00 | 70 | 1007.2 |
| 20260505034559 | 19 | 140 | 12.9 | 17.7 | 0.00 | 0.00 | 0.00 | 70 | 1007.3 |
| 20260505034056 | 19 | 135 | 11.3 | 16.1 | 0.00 | 0.00 | 0.00 | 70 | 1007.0 |
| 20260505033553 | 19 | 121 | 9.7 | 17.7 | 0.00 | 0.00 | 0.00 | 70 | 1007.4 |
| 20260505033051 | 19 | 127 | 11.3 | 12.9 | 0.00 | 0.00 | 0.00 | 70 | 1007.3 |
| 20260505032549 | 19 | 150 | 8.0 | 11.3 | 0.00 | 0.00 | 0.00 | 70 | 1007.6 |
| 20260505032045 | 19 | 141 | 6.4 | 11.3 | 0.00 | 0.00 | 0.00 | 70 | 1007.5 |
| 20260505031542 | 19 | 147 | 6.4 | 12.9 | 0.00 | 0.00 | 0.00 | 69 | 1007.6 |
| 20260505031038 | 20 | 157 | 11.3 | 12.9 | 0.00 | 0.00 | 0.00 | 69 | 1007.5 |
| 20260505030536 | 20 | 149 | 9.7 | 14.5 | 0.00 | 0.00 | 0.00 | 68 | 1007.5 |
| 20260505030032 | 20 | 151 | 11.3 | 16.1 | 0.00 | 0.00 | 0.00 | 68 | 1007.7 |
| 20260505025527 | 20 | 141 | 9.7 | 12.9 | 0.00 | 0.00 | 0.00 | 69 | 1007.4 |
| 20260505025027 | 20 | 149 | 6.4 | 11.3 | 0.00 | 0.00 | 0.00 | 68 | 1007.5 |
| 20260505024523 | 20 | 152 | 11.3 | 14.5 | 0.00 | 0.00 | 0.00 | 67 | 1007.3 |
| 20260505024020 | 20 | 143 | 11.3 | 11.3 | 0.00 | 0.00 | 0.00 | 67 | 1007.2 |
| 20260505023517 | 20 | 150 | 8.0 | 11.3 | 0.00 | 0.00 | 0.00 | 67 | 1007.4 |
| 20260505023015 | 20 | 166 | 8.0 | 9.7 | 0.00 | 0.00 | 0.00 | 66 | 1007.3 |
| 20260505022513 | 20 | 161 | 6.4 | 9.7 | 0.00 | 0.00 | 0.00 | 66 | 1007.4 |
| 20260505022010 | 20 | 190 | 4.8 | 9.7 | 0.00 | 0.00 | 0.00 | 65 | 1007.1 |
| 20260505021506 | 20 | 218 | 6.4 | 11.3 | 0.00 | 0.00 | 0.00 | 65 | 1007.0 |
| 20260505021002 | 21 | 207 | 4.8 | 9.7 | 0.00 | 0.00 | 0.00 | 65 | 1007.0 |
| 20260505020457 | 21 | 191 | 11.3 | 14.5 | 0.00 | 0.00 | 0.00 | 64 | 1006.8 |
| 20260505015954 | 21 | 195 | 9.7 | 12.9 | 0.00 | 0.00 | 0.00 | 63 | 1007.1 |
| 20260505015451 | 21 | 192 | 6.4 | 19.3 | 0.00 | 0.00 | 0.00 | 63 | 1007.0 |
| 20260505014948 | 21 | 223 | 22.5 | 24.1 | 0.00 | 0.00 | 0.00 | 62 | 1006.8 |
| 20260505014445 | 21 | 222 | 14.5 | 19.3 | 0.00 | 0.00 | 0.00 | 62 | 1006.6 |
| 20260505013942 | 21 | 220 | 16.1 | 20.9 | 0.00 | 0.00 | 0.00 | 61 | 1006.6 |
| 20260505013439 | 22 | 215 | 19.3 | 27.4 | 0.00 | 0.00 | 0.00 | 60 | 1006.7 |
| 20260505012937 | 22 | 254 | 8.0 | 25.7 | 0.00 | 0.00 | 0.00 | 60 | 1006.5 |
| 20260505012435 | 22 | 229 | 19.3 | 20.9 | 0.00 | 0.00 | 0.00 | 60 | 1006.5 |
| 20260505011931 | 21 | 245 | 20.9 | 27.4 | 0.00 | 0.00 | 0.00 | 61 | 1006.5 |
| 20260505011427 | 21 | 208 | 11.3 | 24.1 | 0.00 | 0.00 | 0.00 | 61 | 1006.3 |
| 20260505010924 | 21 | 198 | 8.0 | 9.7 | 0.00 | 0.00 | 0.00 | 62 | 1006.4 |
| 20260505010420 | 21 | 171 | 6.4 | 9.7 | 0.00 | 0.00 | 0.00 | 62 | 1006.4 |
| 20260505005916 | 22 | 170 | 9.7 | 12.9 | 0.00 | 0.00 | 0.00 | 61 | 1006.2 |
| 20260505005413 | 22 | 174 | 9.7 | 12.9 | 0.00 | 0.00 | 0.00 | 61 | 1006.1 |
| 20260505004911 | 22 | 191 | 6.4 | 16.1 | 0.00 | 0.00 | 0.00 | 61 | 1006.0 |
| 20260505004407 | 22 | 220 | 19.3 | 19.3 | 0.00 | 0.00 | 0.00 | 60 | 1006.0 |
| 20260505003904 | 22 | 170 | 9.7 | 12.9 | 0.00 | 0.00 | 0.00 | 60 | 1005.8 |
| 20260505003401 | 22 | 156 | 8.0 | 11.3 | 0.00 | 0.00 | 0.00 | 60 | 1006.0 |
| 20260505002857 | 22 | 169 | 9.7 | 11.3 | 0.00 | 0.00 | 0.00 | 60 | 1005.7 |
| 20260505002354 | 22 | 180 | 8.0 | 11.3 | 0.00 | 0.00 | 0.00 | 59 | 1005.7 |
| 20260505001853 | 22 | 215 | 9.7 | 14.5 | 0.00 | 0.00 | 0.00 | 59 | 1005.7 |
| 20260505001349 | 22 | 205 | 6.4 | 16.1 | 0.00 | 0.00 | 0.00 | 58 | 1005.9 |
| 20260505000846 | 22 | 190 | 9.7 | 11.3 | 0.00 | 0.00 | 0.00 | 58 | 1006.0 |
| 20260505000344 | 23 | 176 | 9.7 | 16.1 | 0.00 | 0.00 | 0.00 | 57 | 1005.8 |
| 20260504235840 | 23 | 166 | 11.3 | 20.9 | 0.00 | 0.00 | 0.00 | 56 | 1005.6 |
| 20260504235338 | 23 | 205 | 12.9 | 17.7 | 0.00 | 0.00 | 0.00 | 56 | 1005.8 |
| 20260504234834 | 23 | 183 | 14.5 | 22.5 | 0.00 | 0.00 | 0.00 | 54 | 1005.7 |
| 20260504234332 | 23 | 168 | 20.9 | 29.0 | 0.00 | 0.00 | 0.00 | 53 | 1005.8 |
| 20260504233828 | 23 | 177 | 17.7 | 20.9 | 0.00 | 0.00 | 0.00 | 54 | 1006.0 |
| 20260504233324 | 23 | 207 | 20.9 | 27.4 | 0.00 | 0.00 | 0.00 | 53 | 1005.8 |
| 20260504232821 | 23 | 175 | 11.3 | 22.5 | 0.00 | 0.00 | 0.00 | 54 | 1005.7 |
| 20260504232318 | 24 | 225 | 16.1 | 29.0 | 0.00 | 0.00 | 0.00 | 53 | 1005.7 |
| 20260504231815 | 24 | 233 | 20.9 | 33.8 | 0.00 | 0.00 | 0.00 | 52 | 1005.8 |
| 20260504231311 | 25 | 227 | 24.1 | 33.8 | 0.00 | 0.00 | 0.00 | 52 | 1005.7 |
| 20260504230808 | 25 | 174 | 24.1 | 25.7 | 0.00 | 0.00 | 0.00 | 52 | 1005.8 |
| 20260504230306 | 25 | 164 | 16.1 | 24.1 | 0.00 | 0.00 | 0.00 | 52 | 1005.7 |
| 20260504225804 | 25 | 174 | 17.7 | 29.0 | 0.00 | 0.00 | 0.00 | 50 | 1005.9 |
| 20260504225300 | 25 | 166 | 14.5 | 27.4 | 0.00 | 0.00 | 0.00 | 51 | 1005.9 |
| 20260504224757 | 25 | 198 | 35.4 | 40.2 | 0.00 | 0.00 | 0.00 | 49 | 1005.8 |
| 20260504224255 | 25 | 218 | 19.3 | 27.4 | 0.00 | 0.00 | 0.00 | 51 | 1005.8 |
| 20260504223751 | 25 | 160 | 19.3 | 27.4 | 0.00 | 0.00 | 0.00 | 51 | 1005.8 |
| 20260504223246 | 25 | 176 | 17.7 | 30.6 | 0.00 | 0.00 | 0.00 | 50 | 1005.8 |
| 20260504222744 | 25 | 175 | 32.2 | 40.2 | 0.00 | 0.00 | 0.00 | 48 | 1005.8 |
| 20260504222240 | 25 | 179 | 17.7 | 32.2 | 0.00 | 0.00 | 0.00 | 50 | 1006.0 |
| 20260504221738 | 25 | 159 | 24.1 | 45.1 | 0.00 | 0.00 | 0.00 | 50 | 1005.9 |
| 20260504221235 | 25 | 211 | 24.1 | 37.0 | 0.00 | 0.00 | 0.00 | 49 | 1005.9 |
| 20260504220731 | 25 | 157 | 33.8 | 38.6 | 0.00 | 0.00 | 0.00 | 50 | 1005.9 |
| 20260504220229 | 26 | 188 | 25.7 | 29.0 | 0.00 | 0.00 | 0.00 | 50 | 1005.8 |
| 20260504215726 | 25 | 231 | 33.8 | 43.5 | 0.00 | 0.00 | 0.00 | 50 | 1005.9 |
| 20260504215223 | 25 | 226 | 16.1 | 30.6 | 0.00 | 0.00 | 0.00 | 49 | 1005.9 |
| 20260504214718 | 25 | 189 | 24.1 | 38.6 | 0.00 | 0.00 | 0.00 | 49 | 1005.9 |
| 20260504214215 | 26 | 189 | 22.5 | 38.6 | 0.00 | 0.00 | 0.00 | 49 | 1005.8 |
| 20260504213712 | 25 | 180 | 16.1 | 40.2 | 0.00 | 0.00 | 0.00 | 50 | 1005.9 |
| 20260504213208 | 26 | 176 | 22.5 | 35.4 | 0.00 | 0.00 | 0.00 | 50 | 1006.0 |
| 20260504212705 | 25 | 200 | 22.5 | 30.6 | 0.00 | 0.00 | 0.00 | 49 | 1005.9 |
| 20260504212202 | 25 | 185 | 19.3 | 41.8 | 0.00 | 0.00 | 0.00 | 49 | 1006.1 |
| 20260504211659 | 25 | 197 | 19.3 | 35.4 | 0.00 | 0.00 | 0.00 | 51 | 1006.2 |
| 20260504211155 | 25 | 168 | 20.9 | 38.6 | 0.00 | 0.00 | 0.00 | 50 | 1006.2 |
| 20260504210653 | 26 | 221 | 37.0 | 40.2 | 0.00 | 0.00 | 0.00 | 50 | 1006.3 |
| 20260504210149 | 25 | 192 | 25.7 | 37.0 | 0.00 | 0.00 | 0.00 | 50 | 1006.1 |
| 20260504205647 | 25 | 216 | 17.7 | 35.4 | 0.00 | 0.00 | 0.00 | 51 | 1006.5 |
| 20260504205144 | 25 | 193 | 14.5 | 38.6 | 0.00 | 0.00 | 0.00 | 52 | 1006.6 |
| 20260504204643 | 25 | 231 | 27.4 | 48.3 | 0.00 | 0.00 | 0.00 | 50 | 1006.6 |
| 20260504204141 | 25 | 226 | 37.0 | 45.1 | 0.00 | 0.00 | 0.00 | 50 | 1006.6 |
| 20260504203639 | 26 | 189 | 38.6 | 48.3 | 0.00 | 0.00 | 0.00 | 50 | 1006.7 |
| 20260504203137 | 25 | 201 | 17.7 | 35.4 | 0.00 | 0.00 | 0.00 | 51 | 1006.6 |
| 20260504202637 | 25 | 180 | 25.7 | 40.2 | 0.00 | 0.00 | 0.00 | 49 | 1007.0 |
| 20260504202134 | 25 | 228 | 41.8 | 45.1 | 0.00 | 0.00 | 0.00 | 49 | 1007.0 |
| 20260504201631 | 25 | 199 | 22.5 | 53.1 | 0.00 | 0.00 | 0.00 | 49 | 1007.0 |
| 20260504201129 | 25 | 155 | 32.2 | 40.2 | 0.00 | 0.00 | 0.00 | 50 | 1007.2 |
| 20260504200626 | 25 | 179 | 43.5 | 56.3 | 0.00 | 0.00 | 0.00 | 49 | 1007.3 |
| 20260504200122 | 25 | 223 | 32.2 | 43.5 | 0.00 | 0.00 | 0.00 | 52 | 1007.3 |
| 20260504195618 | 25 | 199 | 20.9 | 41.8 | 0.00 | 0.00 | 0.00 | 51 | 1007.3 |
| 20260504195114 | 25 | 204 | 27.4 | 38.6 | 0.00 | 0.00 | 0.00 | 50 | 1007.3 |
| 20260504194611 | 25 | 185 | 35.4 | 43.5 | 0.00 | 0.00 | 0.00 | 50 | 1007.2 |
| 20260504194107 | 25 | 171 | 20.9 | 54.7 | 0.00 | 0.00 | 0.00 | 51 | 1007.3 |
| 20260504193603 | 25 | 243 | 33.8 | 38.6 | 0.00 | 0.00 | 0.00 | 51 | 1007.1 |
| 20260504193102 | 25 | 245 | 25.7 | 56.3 | 0.00 | 0.00 | 0.00 | 50 | 1007.4 |
| 20260504192600 | 25 | 229 | 22.5 | 51.5 | 0.00 | 0.00 | 0.00 | 52 | 1007.5 |
| 20260504192058 | 25 | 224 | 14.5 | 35.4 | 0.00 | 0.00 | 0.00 | 52 | 1007.3 |
| 20260504191556 | 25 | 185 | 27.4 | 41.8 | 0.00 | 0.00 | 0.00 | 50 | 1007.5 |
| 20260504191051 | 25 | 175 | 30.6 | 43.5 | 0.00 | 0.00 | 0.00 | 51 | 1007.5 |
| 20260504190548 | 25 | 193 | 20.9 | 43.5 | 0.00 | 0.00 | 0.00 | 51 | 1007.5 |
| 20260504190044 | 25 | 193 | 27.4 | 46.7 | 0.00 | 0.00 | 0.00 | 51 | 1007.5 |
| 20260504185541 | 25 | 192 | 27.4 | 43.5 | 0.00 | 0.00 | 0.00 | 50 | 1007.5 |
| 20260504185038 | 25 | 165 | 25.7 | 40.2 | 0.00 | 0.00 | 0.00 | 52 | 1007.4 |
| 20260504184533 | 25 | 180 | 20.9 | 29.0 | 0.00 | 0.00 | 0.00 | 53 | 1007.3 |
| 20260504184029 | 25 | 160 | 32.2 | 48.3 | 0.00 | 0.00 | 0.00 | 51 | 1007.4 |
| 20260504183526 | 25 | 212 | 40.2 | 46.7 | 0.00 | 0.00 | 0.00 | 50 | 1007.7 |
| 20260504183024 | 24 | 219 | 24.1 | 40.2 | 0.00 | 0.00 | 0.00 | 52 | 1007.4 |
| 20260504182520 | 25 | 234 | 33.8 | 37.0 | 0.00 | 0.00 | 0.00 | 52 | 1007.7 |
| 20260504182018 | 25 | 200 | 16.1 | 32.2 | 0.00 | 0.00 | 0.00 | 51 | 1007.6 |
| 20260504181515 | 24 | 206 | 43.5 | 53.1 | 0.00 | 0.00 | 0.00 | 50 | 1007.7 |
| 20260504181014 | 24 | 165 | 37.0 | 41.8 | 0.00 | 0.00 | 0.00 | 50 | 1007.6 |
| 20260504180512 | 24 | 214 | 32.2 | 45.1 | 0.00 | 0.00 | 0.00 | 51 | 1007.7 |
| 20260504180010 | 24 | 185 | 37.0 | 40.2 | 0.00 | 0.00 | 0.00 | 50 | 1007.6 |
| 20260504175507 | 24 | 178 | 30.6 | 40.2 | 0.00 | 0.00 | 0.00 | 51 | 1007.7 |
| 20260504175004 | 24 | 207 | 14.5 | 35.4 | 0.00 | 0.00 | 0.00 | 52 | 1007.5 |
| 20260504174502 | 23 | 175 | 25.7 | 37.0 | 0.00 | 0.00 | 0.00 | 51 | 1007.7 |
| 20260504173959 | 24 | 181 | 37.0 | 46.7 | 0.00 | 0.00 | 0.00 | 51 | 1007.8 |
| 20260504173455 | 23 | 209 | 24.1 | 53.1 | 0.00 | 0.00 | 0.00 | 52 | 1007.6 |
| 20260504172953 | 23 | 189 | 25.7 | 57.9 | 0.00 | 0.00 | 0.00 | 51 | 1007.9 |
| 20260504172448 | 23 | 200 | 24.1 | 46.7 | 0.00 | 0.00 | 0.00 | 51 | 1007.9 |
| 20260504171945 | 23 | 208 | 14.5 | 41.8 | 0.00 | 0.00 | 0.00 | 51 | 1008.2 |
| 20260504171442 | 23 | 217 | 35.4 | 43.5 | 0.00 | 0.00 | 0.00 | 51 | 1008.0 |
| 20260504170939 | 23 | 164 | 22.5 | 51.5 | 0.00 | 0.00 | 0.00 | 54 | 1008.1 |
| 20260504170436 | 23 | 235 | 22.5 | 38.6 | 0.00 | 0.00 | 0.00 | 52 | 1008.0 |
| 20260504160355 | 22 | 162 | 27.4 | 46.7 | 0.00 | 0.00 | 0.00 | 52 | 1008.3 |
| 20260504150820 | 21 | 220 | 29.0 | 41.8 | 0.00 | 0.00 | 0.00 | 53 | 1008.9 |
| 20260504150316 | 21 | 230 | 20.9 | 48.3 | 0.00 | 0.00 | 0.00 | 53 | 1008.9 |
| 20260504141246 | 20 | 163 | 25.7 | 33.8 | 0.00 | 0.00 | 0.00 | 53 | 1009.1 |
| 20260504140742 | 20 | 186 | 30.6 | 41.8 | 0.00 | 0.00 | 0.00 | 54 | 1009.5 |
| 20260504140238 | 20 | 186 | 19.3 | 32.2 | 0.00 | 0.00 | 0.00 | 55 | 1009.4 |
| 20260504130707 | 18 | 167 | 27.4 | 30.6 | 0.00 | 0.00 | 0.00 | 58 | 1009.4 |
| 20260504130203 | 18 | 177 | 25.7 | 59.5 | 0.00 | 0.00 | 0.00 | 58 | 1009.5 |